Time,TemperatureF,DewpointF,PressureIn,WindDirection,WindDirectionDegrees,WindSpeedMPH,WindSpeedGustMPH,Humidity,HourlyPrecipIn,Conditions,Clouds,dailyrainin,SoftwareType,DateUTC
2013-03-08 00:22:00,31.0,-99.9,30.11,North,-999,-999.0,-999.0,-999,-99.99,,,-99.99,,2013-03-08 05:22:00,
2013-03-08 00:33:00,31.0,-99.9,30.11,North,-999,-999.0,-999.0,-999,-99.99,,,-99.99,,2013-03-08 05:33:00,
2013-03-08 00:43:00,31.0,-99.9,30.11,North,-999,-999.0,-999.0,-999,-99.99,,,-99.99,,2013-03-08 05:43:00,
2013-03-08 00:52:00,30.0,-99.9,30.11,North,-999,-999.0,-999.0,-999,-99.99,,,-99.99,,2013-03-08 05:52:00,
2013-03-08 01:22:00,30.0,-99.9,30.11,North,-999,-999.0,-999.0,-999,-99.99,,,-99.99,,2013-03-08 06:22:00,
2013-03-08 01:32:00,30.0,-99.9,30.11,North,-999,-999.0,-999.0,-999,-99.99,,,-99.99,,2013-03-08 06:32:00,
2013-03-08 01:42:00,30.0,-99.9,30.11,North,-999,-999.0,-999.0,-999,-99.99,,,-99.99,,2013-03-08 06:42:00,
2013-03-08 02:22:00,30.0,-99.9,30.10,North,-999,-999.0,-999.0,-999,-99.99,,,-99.99,,2013-03-08 07:22:00,
2013-03-08 02:32:00,30.0,-99.9,30.10,North,-999,-999.0,-999.0,-999,-99.99,,,-99.99,,2013-03-08 07:32:00,
2013-03-08 02:42:00,30.0,-99.9,30.10,North,-999,-999.0,-999.0,-999,-99.99,,,-99.99,,2013-03-08 07:42:00,
2013-03-08 02:52:00,30.0,-99.9,30.10,North,-999,-999.0,-999.0,-999,-99.99,,,-99.99,,2013-03-08 07:52:00,
2013-03-08 03:22:00,28.0,-99.9,30.08,North,-999,-999.0,-999.0,-999,-99.99,,,-99.99,,2013-03-08 08:22:00,
2013-03-08 03:32:00,28.0,-99.9,30.08,North,-999,-999.0,-999.0,-999,-99.99,,,-99.99,,2013-03-08 08:32:00,
2013-03-08 03:42:00,28.0,-99.9,30.08,North,-999,-999.0,-999.0,-999,-99.99,,,-99.99,,2013-03-08 08:42:00,
2013-03-08 03:52:00,28.0,-99.9,30.07,North,-999,-999.0,-999.0,-999,-99.99,,,-99.99,,2013-03-08 08:52:00,
2013-03-08 04:22:00,28.0,-99.9,30.07,North,-999,-999.0,-999.0,-999,-99.99,,,-99.99,,2013-03-08 09:22:00,
2013-03-08 04:32:00,28.0,-99.9,30.07,North,-999,-999.0,-999.0,-999,-99.99,,,-99.99,,2013-03-08 09:32:00,
2013-03-08 04:42:00,28.0,-99.9,30.07,North,-999,-999.0,-999.0,-999,-99.99,,,-99.99,,2013-03-08 09:42:00,
2013-03-08 04:52:00,28.0,-99.9,30.06,North,-999,-999.0,-999.0,-999,-99.99,,,-99.99,,2013-03-08 09:52:00,
2013-03-08 05:21:00,28.0,-99.9,30.06,North,-999,-999.0,-999.0,-999,-99.99,,,-99.99,,2013-03-08 10:21:00,
2013-03-08 05:32:00,28.0,-99.9,30.06,North,-999,-999.0,-999.0,-999,-99.99,,,-99.99,,2013-03-08 10:32:00,
2013-03-08 05:42:00,28.0,-99.9,30.06,North,-999,-999.0,-999.0,-999,-99.99,,,-99.99,,2013-03-08 10:42:00,
2013-03-08 05:52:00,28.0,-99.9,30.06,North,-999,-999.0,-999.0,-999,-99.99,,,-99.99,,2013-03-08 10:52:00,
2013-03-08 06:22:00,28.0,-99.9,30.06,North,-999,-999.0,-999.0,-999,-99.99,,,-99.99,,2013-03-08 11:22:00,
2013-03-08 06:32:00,28.0,-99.9,30.06,North,-999,-999.0,-999.0,-999,-99.99,,,-99.99,,2013-03-08 11:32:00,
2013-03-08 06:42:00,28.0,-99.9,30.06,North,-999,-999.0,-999.0,-999,-99.99,,,-99.99,,2013-03-08 11:42:00,
2013-03-08 06:52:00,28.0,-99.9,30.08,North,-999,-999.0,-999.0,-999,-99.99,,,-99.99,,2013-03-08 11:52:00,
2013-03-08 07:23:00,28.0,-99.9,30.08,North,-999,-999.0,-999.0,-999,-99.99,,,-99.99,,2013-03-08 12:23:00,
2013-03-08 07:32:00,28.0,-99.9,30.08,North,-999,-999.0,-999.0,-999,-99.99,,,-99.99,,2013-03-08 12:32:00,
2013-03-08 07:43:00,28.0,-99.9,30.08,North,-999,-999.0,-999.0,-999,-99.99,,,-99.99,,2013-03-08 12:43:00,
2013-03-08 07:52:00,28.0,-99.9,30.09,North,-999,-999.0,-999.0,-999,-99.99,,,-99.99,,2013-03-08 12:52:00,
2013-03-08 08:33:00,28.0,-99.9,30.09,North,-999,-999.0,-999.0,-999,-99.99,,,-99.99,,2013-03-08 13:33:00,
2013-03-08 08:42:00,28.0,-99.9,30.09,North,-999,-999.0,-999.0,-999,-99.99,,,-99.99,,2013-03-08 13:42:00,
2013-03-08 08:52:00,29.0,-99.9,30.09,North,-999,-999.0,-999.0,-999,-99.99,,,-99.99,,2013-03-08 13:52:00,
2013-03-08 09:22:00,29.0,-99.9,30.09,North,-999,-999.0,-999.0,-999,-99.99,,,-99.99,,2013-03-08 14:22:00,
2013-03-08 09:33:00,29.0,-99.9,30.09,North,-999,-999.0,-999.0,-999,-99.99,,,-99.99,,2013-03-08 14:33:00,
2013-03-08 09:42:00,29.0,-99.9,30.09,North,-999,-999.0,-999.0,-999,-99.99,,,-99.99,,2013-03-08 14:42:00,
2013-03-08 09:53:00,29.0,-99.9,30.10,North,-999,-999.0,-999.0,-999,-99.99,,,-99.99,,2013-03-08 14:53:00,
2013-03-08 10:22:00,29.0,-99.9,30.10,North,-999,-999.0,-999.0,-999,-99.99,,,-99.99,,2013-03-08 15:22:00,
2013-03-08 10:32:00,29.0,-99.9,30.10,North,-999,-999.0,-999.0,-999,-99.99,,,-99.99,,2013-03-08 15:32:00,
2013-03-08 10:43:00,29.0,-99.9,30.10,North,-999,-999.0,-999.0,-999,-99.99,,,-99.99,,2013-03-08 15:43:00,
2013-03-08 10:52:00,30.0,-99.9,30.11,North,-999,-999.0,-999.0,-999,-99.99,,,-99.99,,2013-03-08 15:52:00,
2013-03-08 11:22:00,30.0,-99.9,30.11,North,-999,-999.0,-999.0,-999,-99.99,,,-99.99,,2013-03-08 16:22:00,
2013-03-08 11:32:00,30.0,-99.9,30.11,North,-999,-999.0,-999.0,-999,-99.99,,,-99.99,,2013-03-08 16:32:00,
2013-03-08 11:42:00,30.0,-99.9,30.11,North,-999,-999.0,-999.0,-999,-99.99,,,-99.99,,2013-03-08 16:42:00,
2013-03-08 12:22:00,31.0,-99.9,30.11,North,-999,-999.0,-999.0,-999,-99.99,,,-99.99,,2013-03-08 17:22:00,
2013-03-08 12:32:00,31.0,-99.9,30.11,North,-999,-999.0,-999.0,-999,-99.99,,,-99.99,,2013-03-08 17:32:00,
2013-03-08 12:42:00,31.0,-99.9,30.11,North,-999,-999.0,-999.0,-999,-99.99,,,-99.99,,2013-03-08 17:42:00,
2013-03-08 12:52:00,31.0,-99.9,30.11,North,-999,-999.0,-999.0,-999,-99.99,,,-99.99,,2013-03-08 17:52:00,
2013-03-08 13:32:00,33.0,-99.9,30.09,North,-999,-999.0,-999.0,-999,-99.99,,,-99.99,,2013-03-08 18:32:00,
2013-03-08 13:42:00,33.0,-99.9,30.09,North,-999,-999.0,-999.0,-999,-99.99,,,-99.99,,2013-03-08 18:42:00,
2013-03-08 14:52:00,39.0,-99.9,30.10,North,-999,-999.0,-999.0,-999,-99.99,,,-99.99,,2013-03-08 19:52:00,
2013-03-08 15:32:00,39.0,-99.9,30.10,North,-999,-999.0,-999.0,-999,-99.99,,,-99.99,,2013-03-08 20:32:00,
2013-03-08 15:42:00,39.0,-99.9,30.10,North,-999,-999.0,-999.0,-999,-99.99,,,-99.99,,2013-03-08 20:42:00,
2013-03-08 15:52:00,41.0,-99.9,30.11,North,-999,-999.0,-999.0,-999,-99.99,,,-99.99,,2013-03-08 20:52:00,
2013-03-08 16:22:00,41.0,-99.9,30.11,North,-999,-999.0,-999.0,-999,-99.99,,,-99.99,,2013-03-08 21:22:00,
2013-03-08 16:33:00,41.0,-99.9,30.11,North,-999,-999.0,-999.0,-999,-99.99,,,-99.99,,2013-03-08 21:33:00,
2013-03-08 16:42:00,41.0,-99.9,30.11,North,-999,-999.0,-999.0,-999,-99.99,,,-99.99,,2013-03-08 21:42:00,
2013-03-08 16:53:00,42.0,-99.9,30.14,North,-999,-999.0,-999.0,-999,-99.99,,,-99.99,,2013-03-08 21:53:00,
2013-03-08 17:32:00,42.0,-99.9,30.14,North,-999,-999.0,-999.0,-999,-99.99,,,-99.99,,2013-03-08 22:32:00,
2013-03-08 17:42:00,42.0,-99.9,30.14,North,-999,-999.0,-999.0,-999,-99.99,,,-99.99,,2013-03-08 22:42:00,
2013-03-08 19:22:00,38.0,-99.9,30.19,North,-999,-999.0,-999.0,-999,-99.99,,,-99.99,,2013-03-09 00:22:00,
2013-03-08 19:32:00,38.0,-99.9,30.19,North,-999,-999.0,-999.0,-999,-99.99,,,-99.99,,2013-03-09 00:32:00,
2013-03-08 19:42:00,38.0,-99.9,30.19,North,-999,-999.0,-999.0,-999,-99.99,,,-99.99,,2013-03-09 00:42:00,
2013-03-08 19:52:00,38.0,-99.9,30.19,North,-999,-999.0,-999.0,-999,-99.99,,,-99.99,,2013-03-09 00:52:00,
2013-03-08 20:22:00,38.0,-99.9,30.22,North,-999,-999.0,-999.0,-999,-99.99,,,-99.99,,2013-03-09 01:22:00,
2013-03-08 20:32:00,38.0,-99.9,30.22,North,-999,-999.0,-999.0,-999,-99.99,,,-99.99,,2013-03-09 01:32:00,
2013-03-08 20:42:00,38.0,-99.9,30.22,North,-999,-999.0,-999.0,-999,-99.99,,,-99.99,,2013-03-09 01:42:00,
2013-03-08 20:52:00,37.0,-99.9,30.23,North,-999,-999.0,-999.0,-999,-99.99,,,-99.99,,2013-03-09 01:52:00,
2013-03-08 21:21:00,37.0,-99.9,30.23,North,-999,-999.0,-999.0,-999,-99.99,,,-99.99,,2013-03-09 02:21:00,
2013-03-08 21:31:00,37.0,-99.9,30.23,North,-999,-999.0,-999.0,-999,-99.99,,,-99.99,,2013-03-09 02:31:00,
2013-03-08 21:41:00,37.0,-99.9,30.23,North,-999,-999.0,-999.0,-999,-99.99,,,-99.99,,2013-03-09 02:41:00,
2013-03-08 21:52:00,37.0,-99.9,30.25,North,-999,-999.0,-999.0,-999,-99.99,,,-99.99,,2013-03-09 02:52:00,
2013-03-08 22:22:00,37.0,-99.9,30.25,North,-999,-999.0,-999.0,-999,-99.99,,,-99.99,,2013-03-09 03:22:00,
2013-03-08 22:32:00,37.0,-99.9,30.25,North,-999,-999.0,-999.0,-999,-99.99,,,-99.99,,2013-03-09 03:32:00,
2013-03-08 22:42:00,37.0,-99.9,30.25,North,-999,-999.0,-999.0,-999,-99.99,,,-99.99,,2013-03-09 03:42:00,
2013-03-08 23:32:00,35.0,-99.9,30.25,North,-999,-999.0,-999.0,-999,-99.99,,,-99.99,,2013-03-09 04:32:00,
2013-03-08 23:42:00,35.0,-99.9,30.25,North,-999,-999.0,-999.0,-999,-99.99,,,-99.99,,2013-03-09 04:42:00,
2013-03-08 23:52:00,35.0,-99.9,30.25,North,-999,-999.0,-999.0,-999,-99.99,,,-99.99,,2013-03-09 04:52:00,
2013-03-08 23:53:00,34.0,-99.9,30.25,North,-999,-999.0,-999.0,-999,-99.99,,,-99.99,,2013-03-09 04:53:00,